map of DHN home
DHN - Airport
Location
City:  Dothan, Alabama, United States
Name:Dothan Regional
ICAO:KDHN
IATA:DHN
FAA LID:DHN

Details
Type:Airport (Part 139 Class I)
Use:Public/Civil
Latitude:3119'16"N (31.321028)
Longitude:8526'58"W (-85.449471)
Datum:WGS 1984
Elevation:400 ft (122 m)
Variation:4.11W (WMM2015 magnetic declination)
-0.10 annual change
Runways:2
Longest:8499 × 150 ft (2590 × 45.5 m), paved

Time
Time Zone:UTC-6 (DST-5)
Local Time:

Weather
METAR:KDHN 250053Z 22008KT 10SM FEW070 BKN085 23/16 A3012 RMK AO2 SLP194 T02280161
TAF:KDHN 242326Z 2500/2524 22010KT P6SM FEW050
FM250800 19006KT 4SM BR BKN008
FM251400 20007KT P6SM BKN025
FM251600 21010G15KT P6SM BKN035

Related Locations
Nearby:
Farthest:USL: 11248 mi / 18102 km
Useless Loop, WA, AU

Find:

   beyond  
but within

Other Information
Maps:
Delays:
NOTAMs:
Links:
Sources:

  
flag of United States
flag of Alabama
  

Airport Diagram

Airport diagram for DHN

Airport diagram PDF

Sectional Chart

Flight Planning
at skyvector.com

Satellite Image

Google Maps Satellite view

 

Copyright © 2004-2018 Karl L. Swartz. All rights reserved.
The Great Circle Mapper name and logo are trademarks of the Great Circle Mapper.
All other trademarks mentioned herein belong to their respective owners.
Please see credits for attibutions and further copyright information.

  Follow gcmap on Facebook Follow gcmap on Twitter Follow gcmap on Google+ GCmap on LinkedIn

hCard Microformat

Geo Microformat